Regional Weather Roundup
Issued by NWS Glasgow, MT

Home | Current Version | Previous Version | Text Only | Print | Product List | Glossary On
Versions: 1 2 3 4 5 6 7 8 9 10 11 12 13 14 15 16 17 18 19 20 21 22 23 24 25 26 27 28 29 30 31 32 33 34 35 36 37 38 39 40 41 42 43 44 45 46 47 48 49 50
000
ASUS45 KGGW 010015
RWRGGW
HOURLY REGIONAL WEATHER ROUNDUP FOR NORTHEAST MONTANA
NATIONAL WEATHER SERVICE GLASGOW MONTANA
600 PM MDT MON AUG 31 2015

NOTE: "FAIR" INDICATES FEW OR NO CLOUDS BELOW 12,000 FEET WITH NO
SIGNIFICANT WEATHER AND/OR OBSTRUCTIONS TO VISISBILITY.

NORTHEAST MONTANA


CITY           SKY/WX    TMP DP  RH WIND       PRES   REMARKS
GLASGOW        SUNNY     74  38  27 SW10      29.83F
6HR MIN TEMP:  69; 6HR MAX TEMP:  75;

PLENTYWOOD       N/A     73  34  23 W15G25      N/A
WOLF POINT     MOSUNNY   76  38  25 W8        29.85R
JORDAN           N/A     77  35  21 NW12      29.86R
WINNETT          N/A     77  35  21 SW6G14      N/A
SIDNEY         SUNNY     79  34  19 W8        29.83F
GLENDIVE       SUNNY     79  39  24 S15       29.86S
MALTA            N/A     79  39  23 SW7         N/A
OPHEIM           N/A     70  32  24 S13       29.63

FORT PECK REPORTS


CITY           SKY/WX    TMP DP  RH WIND       PRES   REMARKS
FORT PECK        N/A     71  51  49 S12         N/A
THE PINES        N/A     72  32  23 S6          N/A

SOUTHEAST MONTANA


CITY           SKY/WX    TMP DP  RH WIND       PRES   REMARKS
BILLINGS       PTSUNNY   82  31  15 SW8       29.88F
MILES CITY     SUNNY     81  43  26 S7        29.85F
BAKER          SUNNY     78  41  26 SW12      29.92S
LIVINGSTON     MOSUNNY   82  29  14 SW15G23   29.91F

CENTRAL MONTANA


CITY           SKY/WX    TMP DP  RH WIND       PRES   REMARKS
HAVRE          PTSUNNY   79  36  21 NW15G23   29.79F
LEWISTOWN      MOSUNNY   77  34  21 NW6       29.90S
GREAT FALLS    SUNNY     76  35  22 SW20G29   29.87F
CUT BANK       CLOUDY    64  36  35 W15       29.87F
HELENA         SUNNY     78  37  22 W15       29.90F
BUTTE          SUNNY     73  31  21 SW12G17   29.99F
BOZEMAN        SUNNY     79  37  22 CALM      29.93F

WESTERN MONTANA


CITY           SKY/WX    TMP DP  RH WIND       PRES   REMARKS
MISSOULA       SUNNY     71  40  32 W8        29.94F
KALISPELL      NOT AVBL

NORTH DAKOTA


CITY           SKY/WX    TMP DP  RH WIND       PRES   REMARKS
WILLISTON      SUNNY     76  34  21 W10       29.84S
DICKINSON      SUNNY     77  40  26 W12       29.89R
MINOT          SUNNY     76  37  24 W12       29.83R
BISMARCK       MOSUNNY   81  43  26 W8        29.87S

SOUTHERN SASKATCHEWAN


CITY           SKY/WX    TMP DP  RH WIND       PRES   REMARKS
REGINA         PTSUNNY   73  41  31 W13G20    29.74R
MOOSE JAW      PTSUNNY   73  45  35 W7        29.73
ESTEVAN        PTSUNNY   75  37  25 W16G24    29.80R
SWIFT CURRENT  SUNNY     73  39  29 W18G25    29.73R




USA.gov is the U.S. government's official web portal to all federal, state and local government web resources and services.